Durango, CO

3:55 PM MST on December 13, 2017 (GMT -0700)
Durango-La Plata County

Weather History for KDRO - February, 2015

Change the Weather History Date:

Wednesday, February 4, 2015

  Actual Average Record
Temperature  
Mean Temperature 41 °F 26 °F  
Max Temperature 56 °F 40 °F 56 °F (2015)
Min Temperature 26 °F 12 °F -14 °F (2016)
Degree Days  
Heating Degree Days 24 39  
Month to date heating degree days 110 158  
Since 1 July heating degree days 3741 4312  
Cooling Degree Days 0 0  
Month to date cooling degree days 0 0  
Year to date cooling degree days 0 0  
Moisture  
Dew Point 26 °F    
Average Humidity 61    
Maximum Humidity 92    
Minimum Humidity 29    
Precipitation  
Precipitation 0.00 in 0.04 in 0.80 in (1976)
Month to date precipitation 0.00 0.15  
Year to date precipitation 1.71 1.27  
Sea Level Pressure  
Sea Level Pressure 30.17 in    
Wind  
Wind Speed 5 mph (NNW)    
Max Wind Speed 20 mph    
Max Gust Speed 27 mph    
Visibility 10 miles    
Events      
T = Trace of Precipitation, MM = Missing Value Source: NWS Daily Summary

Daily Weather History Graph

Daily Weather History Graph

Search for Another Location

Airport or City:

Trip Planner

Search our weather history database for the weather conditions in past years. The results will help you decide how hot, cold, wet, or windy it might be!

Date:

Astronomy

Feb. 04, 2015 Rise Set
Actual Time 7:11 AM MST 5:38 PM MST
Civil Twilight 6:44 AM MST 6:06 PM MST
Nautical Twilight 6:13 AM MST 6:37 PM MST
Astronomical Twilight 5:42 AM MST 7:07 PM MST
Moon 6:39 PM MST (2/4) 7:18 AM MST (2/4)
Length of Visible Light 11h 22m
Length of Day
10h 27m
Waxing Gibbous, 99% of the Moon is Illuminated
Feb 4
Waxing Gibbous
Feb 11
Last Quarter
Feb 18
New
Feb 25
First Quarter
Mar 5
Full

Hourly Weather History & Observations

Time (MST) Temp. Windchill Dew Point Humidity Pressure Visibility Wind Dir Wind Speed Gust Speed Precip Events Conditions
12:53 AM 28.0 °F 24.2 °F 26.1 °F 92% 30.13 in 10.0 mi ESE 3.5 mph - N/A   Clear
1:53 AM 28.9 °F 22.8 °F 27.0 °F 92% 30.12 in 10.0 mi ENE 5.8 mph - N/A   Clear
2:53 AM 28.9 °F 23.9 °F 27.0 °F 92% 30.11 in 10.0 mi NE 4.6 mph - N/A   Clear
3:53 AM 28.0 °F - 26.1 °F 92% 30.12 in 10.0 mi Calm Calm - N/A   Clear
4:53 AM 28.0 °F 22.8 °F 26.1 °F 92% 30.13 in 10.0 mi ENE 4.6 mph - N/A   Clear
5:53 AM 28.0 °F 22.8 °F 26.1 °F 92% 30.17 in 10.0 mi North 4.6 mph - N/A   Clear
6:53 AM 27.0 °F 21.6 °F 25.0 °F 92% 30.18 in 10.0 mi East 4.6 mph - N/A   Clear
7:53 AM 28.9 °F - 26.1 °F 89% 30.21 in 10.0 mi Calm Calm - N/A   Clear
8:53 AM 32.0 °F 26.4 °F 28.0 °F 85% 30.23 in 10.0 mi East 5.8 mph - N/A   Clear
9:53 AM 36.0 °F - 30.9 °F 82% 30.22 in 10.0 mi Calm Calm - N/A   Clear
10:53 AM 41.0 °F 37.1 °F 32.0 °F 70% 30.20 in 10.0 mi Variable 5.8 mph - N/A   Clear
11:53 AM 48.0 °F - 34.0 °F 58% 30.17 in 10.0 mi Variable 4.6 mph - N/A   Clear
12:53 PM 51.1 °F - 35.1 °F 54% 30.13 in 10.0 mi South 9.2 mph - N/A   Clear
1:53 PM 55.0 °F - 28.9 °F 37% 30.08 in 10.0 mi WNW 12.7 mph - N/A   Clear
2:53 PM 55.9 °F - 26.1 °F 32% 30.06 in 10.0 mi WNW 9.2 mph - N/A   Clear
3:53 PM 54.0 °F - 23.0 °F 30% 30.09 in 10.0 mi WNW 16.1 mph 25.3 mph N/A   Clear
4:53 PM 51.1 °F - 23.0 °F 33% 30.12 in 10.0 mi WNW 12.7 mph - N/A   Clear
5:53 PM 46.9 °F - 23.0 °F 39% 30.17 in 10.0 mi WSW 8.1 mph - N/A   Clear
6:53 PM 45.0 °F 43.5 °F 21.0 °F 39% 30.21 in 10.0 mi SSW 3.5 mph - N/A   Clear
7:53 PM 43.0 °F - 21.9 °F 43% 30.23 in 10.0 mi Calm Calm - N/A   Clear
8:53 PM 37.9 °F 34.4 °F 23.0 °F 55% 30.26 in 10.0 mi WSW 4.6 mph - N/A   Clear
9:53 PM 37.0 °F - 23.0 °F 57% 30.25 in 10.0 mi Calm Calm - N/A   Clear
10:53 PM 35.1 °F 31.0 °F 23.0 °F 61% 30.25 in 10.0 mi North 4.6 mph - N/A   Clear
11:53 PM 34.0 °F 29.8 °F 21.9 °F 61% 30.23 in 10.0 mi NNW 4.6 mph - N/A   Clear